Location: Unspecified
(40.7945°N, 0.0000°E)
Time: 03:10:05
(UTC+00:00)

Altair - Pass Details

Date: 28 January 2021
Orbit: 1501 x 1682 km, 47.2° (Epoch: 01 March)

Event Time Altitude Azimuth Distance (km) Brightness Sun altitude
Rises 11:37:24 0° 296° (WNW) 4,939 9.9 30.6°
Reaches altitude 10° 11:41:02 10° 287° (WNW) 3,942 9.5 30.7°
Maximum altitude 11:49:27 31° 230° (SW) 2,591 9.5 30.9°
Drops below altitude 10° 11:57:43 10° 173° (S) 3,845 11.2 31.0°
Sets 12:01:15 0° 163° (SSE) 4,802 11.2 31.1°
